Location: Gallinara
(44.0333°N, 8.2333°E)
Time: 06:23:42
(UTC+00:00)

Cosmos 2360 Rocket - Pass Details

Date: 25 September 2020
Orbit: 835 x 844 km, 71.0° (Epoch: 23 October)

Event Time Altitude Azimuth Distance (km) Brightness Sun altitude
Exits shadow 02:33:25 18° 149° (SSE) 1,955 4.1 -29.1°
Maximum altitude 02:36:27 29° 103° (ESE) 1,509 3.9 -28.7°
Drops below altitude 10° 02:41:14 10° 46° (NE) 2,468 5.5 -27.9°
Sets 02:43:58 0° 35° (NE) 3,407 6.3 -27.5°
